Location: Asheville, NC
(35.6000°N, 82.5500°W)
Time: 20:15:01

AO-7 - Pass Details

Date: 10 March 2018
Orbit: 1440 x 1459 km, 101.7° (Epoch: 19 March)

Event Time Altitude Azimuth Distance (km) Brightness Sun altitude
Rises 04:20:37 0° 15° (NNE) 4,544 ? -30.4°
Reaches altitude 10° 04:23:23 10° 15° (NNE) 3,561 ? -29.9°
Maximum altitude 04:31:42 83° 289° (WNW) 1,453 ? -28.3°
Enters shadow 04:35:36 36° 205° (SSW) 2,111 ? -27.5°
